Time,TemperatureF,DewpointF,PressureIn,WindDirection,WindDirectionDegrees,WindSpeedMPH,WindSpeedGustMPH,Humidity,HourlyPrecipIn,Conditions,Clouds,dailyrainin,SoftwareType,DateUTC
2013-04-27 00:01:00,51.4,47.9,30.35,NE,46,0.0,0.0,88,0.00,,,0.00,WUHU216DAVISVP2,2013-04-27 04:01:00,
2013-04-27 00:02:00,51.4,47.9,30.35,NE,46,0.0,0.0,88,0.00,,,0.00,WUHU216DAVISVP2,2013-04-27 04:02:00,
2013-04-27 00:07:00,51.3,48.1,30.35,NE,46,0.0,0.0,89,0.00,,,0.00,WUHU216DAVISVP2,2013-04-27 04:07:00,
2013-04-27 00:12:00,51.2,48.1,30.35,NE,46,0.0,0.0,89,0.00,,,0.00,WUHU216DAVISVP2,2013-04-27 04:12:00,
2013-04-27 00:17:00,51.1,48.0,30.35,NW,314,0.0,3.0,89,0.00,,,0.00,WUHU216DAVISVP2,2013-04-27 04:17:00,
2013-04-27 00:22:00,51.0,48.2,30.35,NW,313,0.0,3.0,90,0.00,,,0.00,WUHU216DAVISVP2,2013-04-27 04:22:00,
2013-04-27 00:27:00,51.0,48.1,30.35,NW,314,0.0,2.0,90,0.00,,,0.00,WUHU216DAVISVP2,2013-04-27 04:27:00,
2013-04-27 00:32:00,50.9,48.0,30.35,NW,314,0.0,2.0,90,0.00,,,0.00,WUHU216DAVISVP2,2013-04-27 04:32:00,
2013-04-27 00:37:00,50.9,48.0,30.34,NW,314,0.0,0.0,90,0.00,,,0.00,WUHU216DAVISVP2,2013-04-27 04:37:00,
2013-04-27 00:42:00,50.9,48.0,30.34,NW,314,0.0,2.0,90,0.00,,,0.00,WUHU216DAVISVP2,2013-04-27 04:42:00,
2013-04-27 00:47:00,50.8,48.2,30.34,NW,313,0.0,2.0,91,0.00,,,0.00,WUHU216DAVISVP2,2013-04-27 04:47:00,
2013-04-27 00:52:00,50.8,48.2,30.34,NW,313,0.0,2.0,91,0.00,,,0.00,WUHU216DAVISVP2,2013-04-27 04:52:00,
2013-04-27 00:57:00,50.7,48.1,30.34,NW,313,0.0,2.0,91,0.00,,,0.00,WUHU216DAVISVP2,2013-04-27 04:57:00,
2013-04-27 01:02:00,50.6,48.3,30.34,NW,313,0.0,0.0,92,0.00,,,0.00,WUHU216DAVISVP2,2013-04-27 05:02:00,
2013-04-27 01:07:00,50.6,48.3,30.34,NW,314,0.0,2.0,92,0.00,,,0.00,WUHU216DAVISVP2,2013-04-27 05:07:00,
2013-04-27 01:12:00,50.5,48.2,30.34,NW,311,3.0,3.0,92,0.00,,,0.00,WUHU216DAVISVP2,2013-04-27 05:12:00,
2013-04-27 01:17:00,50.5,48.3,30.34,NW,311,0.0,3.0,92,0.00,,,0.00,WUHU216DAVISVP2,2013-04-27 05:17:00,
2013-04-27 01:22:00,50.5,48.6,30.34,NW,311,0.0,3.0,93,0.00,,,0.00,WUHU216DAVISVP2,2013-04-27 05:22:00,
2013-04-27 01:27:00,50.5,48.5,30.34,NW,311,0.0,2.0,93,0.00,,,0.00,WUHU216DAVISVP2,2013-04-27 05:27:00,
2013-04-27 01:32:00,50.5,48.5,30.34,NW,311,0.0,2.0,93,0.00,,,0.00,WUHU216DAVISVP2,2013-04-27 05:32:00,
2013-04-27 01:37:00,50.6,48.6,30.34,NW,311,0.0,2.0,93,0.00,,,0.00,WUHU216DAVISVP2,2013-04-27 05:37:00,
2013-04-27 01:42:00,50.7,49.0,30.34,NW,311,0.0,2.0,94,0.00,,,0.00,WUHU216DAVISVP2,2013-04-27 05:42:00,
2013-04-27 01:47:00,50.8,49.1,30.34,NW,311,0.0,2.0,94,0.00,,,0.00,WUHU216DAVISVP2,2013-04-27 05:47:00,
2013-04-27 01:52:00,50.8,49.1,30.34,NW,311,0.0,0.0,94,0.00,,,0.00,WUHU216DAVISVP2,2013-04-27 05:52:00,
2013-04-27 01:57:00,50.9,49.2,30.33,NW,311,0.0,0.0,94,0.00,,,0.00,WUHU216DAVISVP2,2013-04-27 05:57:00,
2013-04-27 02:02:00,50.9,49.2,30.33,NW,307,0.0,0.0,94,0.00,,,0.00,WUHU216DAVISVP2,2013-04-27 06:02:00,
2013-04-27 02:07:00,50.9,49.2,30.33,NW,307,0.0,0.0,94,0.00,,,0.00,WUHU216DAVISVP2,2013-04-27 06:07:00,
2013-04-27 02:12:00,50.9,49.2,30.32,NW,307,0.0,0.0,94,0.00,,,0.00,WUHU216DAVISVP2,2013-04-27 06:12:00,
2013-04-27 02:17:00,51.0,49.6,30.32,WNW,302,0.0,0.0,95,0.00,,,0.00,WUHU216DAVISVP2,2013-04-27 06:17:00,
2013-04-27 02:22:00,51.1,49.7,30.33,WNW,302,0.0,0.0,95,0.00,,,0.00,WUHU216DAVISVP2,2013-04-27 06:22:00,
2013-04-27 02:27:00,51.4,50.0,30.33,NNE,26,0.0,0.0,95,0.00,,,0.00,WUHU216DAVISVP2,2013-04-27 06:27:00,
2013-04-27 02:32:00,51.6,50.2,30.33,North,352,0.0,0.0,95,0.00,,,0.00,WUHU216DAVISVP2,2013-04-27 06:32:00,
2013-04-27 02:37:00,51.8,50.4,30.32,ENE,60,0.0,0.0,95,0.00,,,0.00,WUHU216DAVISVP2,2013-04-27 06:37:00,
2013-04-27 02:42:00,52.1,50.7,30.32,ENE,60,0.0,0.0,95,0.00,,,0.00,WUHU216DAVISVP2,2013-04-27 06:42:00,
2013-04-27 02:47:00,52.3,50.9,30.32,ENE,60,0.0,0.0,95,0.00,,,0.00,WUHU216DAVISVP2,2013-04-27 06:47:00,
2013-04-27 02:52:00,52.5,51.1,30.33,ENE,59,0.0,0.0,95,0.00,,,0.00,WUHU216DAVISVP2,2013-04-27 06:52:00,
2013-04-27 02:57:00,52.5,51.1,30.33,ENE,59,0.0,0.0,95,0.00,,,0.00,WUHU216DAVISVP2,2013-04-27 06:57:00,
2013-04-27 03:02:00,52.6,51.2,30.33,ENE,60,0.0,0.0,95,0.00,,,0.00,WUHU216DAVISVP2,2013-04-27 07:02:00,
2013-04-27 03:07:00,52.8,51.4,30.34,ENE,60,0.0,0.0,95,0.00,,,0.00,WUHU216DAVISVP2,2013-04-27 07:07:00,
2013-04-27 03:12:00,53.0,51.6,30.33,NE,36,0.0,0.0,95,0.00,,,0.00,WUHU216DAVISVP2,2013-04-27 07:12:00,
2013-04-27 03:17:00,53.2,51.8,30.33,NE,36,0.0,0.0,95,0.00,,,0.00,WUHU216DAVISVP2,2013-04-27 07:17:00,
2013-04-27 03:22:00,53.4,52.0,30.33,NW,304,0.0,0.0,95,0.00,,,0.00,WUHU216DAVISVP2,2013-04-27 07:22:00,
2013-04-27 03:27:00,53.5,52.1,30.34,NW,305,0.0,0.0,95,0.00,,,0.00,WUHU216DAVISVP2,2013-04-27 07:27:00,
2013-04-27 03:32:00,53.6,52.2,30.33,East,81,0.0,0.0,95,0.00,,,0.00,WUHU216DAVISVP2,2013-04-27 07:32:00,
2013-04-27 03:37:00,53.8,52.4,30.33,East,79,0.0,0.0,95,0.00,,,0.00,WUHU216DAVISVP2,2013-04-27 07:37:00,
2013-04-27 03:42:00,53.9,52.5,30.33,East,80,0.0,0.0,95,0.00,,,0.00,WUHU216DAVISVP2,2013-04-27 07:42:00,
2013-04-27 03:47:00,53.9,52.5,30.32,East,81,0.0,0.0,95,0.00,,,0.00,WUHU216DAVISVP2,2013-04-27 07:47:00,
2013-04-27 03:52:00,53.9,52.5,30.33,East,80,0.0,0.0,95,0.00,,,0.00,WUHU216DAVISVP2,2013-04-27 07:52:00,
2013-04-27 03:57:00,53.9,52.5,30.32,East,80,0.0,0.0,95,0.00,,,0.00,WUHU216DAVISVP2,2013-04-27 07:57:00,
2013-04-27 04:02:00,54.0,52.6,30.33,East,80,0.0,0.0,95,0.00,,,0.00,WUHU216DAVISVP2,2013-04-27 08:02:00,
2013-04-27 04:07:00,54.0,52.6,30.33,East,79,0.0,0.0,95,0.00,,,0.00,WUHU216DAVISVP2,2013-04-27 08:07:00,
2013-04-27 04:12:00,53.9,52.5,30.33,East,81,0.0,0.0,95,0.00,,,0.00,WUHU216DAVISVP2,2013-04-27 08:12:00,
2013-04-27 04:17:00,53.9,52.5,30.33,East,81,0.0,0.0,95,0.00,,,0.00,WUHU216DAVISVP2,2013-04-27 08:17:00,
2013-04-27 04:22:00,53.8,52.4,30.33,East,81,0.0,0.0,95,0.00,,,0.00,WUHU216DAVISVP2,2013-04-27 08:22:00,
2013-04-27 04:27:00,53.8,52.4,30.33,East,80,0.0,0.0,95,0.00,,,0.00,WUHU216DAVISVP2,2013-04-27 08:27:00,
2013-04-27 04:32:00,53.9,52.5,30.33,East,81,0.0,0.0,95,0.00,,,0.00,WUHU216DAVISVP2,2013-04-27 08:32:00,
2013-04-27 04:37:00,53.8,52.4,30.32,East,81,0.0,0.0,95,0.00,,,0.00,WUHU216DAVISVP2,2013-04-27 08:37:00,
2013-04-27 04:42:00,53.8,52.4,30.32,East,81,0.0,0.0,95,0.00,,,0.00,WUHU216DAVISVP2,2013-04-27 08:42:00,
2013-04-27 04:47:00,53.8,52.4,30.32,East,79,0.0,0.0,95,0.00,,,0.00,WUHU216DAVISVP2,2013-04-27 08:47:00,
2013-04-27 04:52:00,53.9,52.5,30.31,East,80,0.0,0.0,95,0.00,,,0.00,WUHU216DAVISVP2,2013-04-27 08:52:00,
2013-04-27 04:57:00,53.9,52.5,30.31,East,80,0.0,0.0,95,0.00,,,0.00,WUHU216DAVISVP2,2013-04-27 08:57:00,
2013-04-27 05:02:00,53.8,52.4,30.31,East,80,0.0,0.0,95,0.00,,,0.00,WUHU216DAVISVP2,2013-04-27 09:02:00,
2013-04-27 05:07:00,53.8,52.4,30.31,East,81,0.0,0.0,95,0.00,,,0.00,WUHU216DAVISVP2,2013-04-27 09:07:00,
2013-04-27 05:12:00,53.9,52.5,30.31,East,79,0.0,0.0,95,0.00,,,0.00,WUHU216DAVISVP2,2013-04-27 09:12:00,
2013-04-27 05:17:00,53.9,52.5,30.31,East,79,0.0,0.0,95,0.00,,,0.00,WUHU216DAVISVP2,2013-04-27 09:17:00,
2013-04-27 05:22:00,53.9,52.5,30.31,East,79,0.0,0.0,95,0.00,,,0.00,WUHU216DAVISVP2,2013-04-27 09:22:00,
2013-04-27 05:27:00,53.9,52.5,30.32,East,80,0.0,0.0,95,0.00,,,0.00,WUHU216DAVISVP2,2013-04-27 09:27:00,
2013-04-27 05:32:00,54.0,52.9,30.32,East,81,0.0,0.0,96,0.00,,,0.00,WUHU216DAVISVP2,2013-04-27 09:32:00,
2013-04-27 05:37:00,54.0,52.9,30.32,East,81,0.0,0.0,96,0.00,,,0.00,WUHU216DAVISVP2,2013-04-27 09:37:00,
2013-04-27 05:42:00,54.0,52.9,30.32,East,81,0.0,0.0,96,0.00,,,0.00,WUHU216DAVISVP2,2013-04-27 09:42:00,
2013-04-27 05:47:00,54.1,52.9,30.32,East,80,0.0,0.0,96,0.00,,,0.00,WUHU216DAVISVP2,2013-04-27 09:47:00,
2013-04-27 05:52:00,54.1,52.9,30.32,East,81,0.0,0.0,96,0.00,,,0.00,WUHU216DAVISVP2,2013-04-27 09:52:00,
2013-04-27 05:57:00,54.1,52.9,30.32,East,81,0.0,0.0,96,0.00,,,0.00,WUHU216DAVISVP2,2013-04-27 09:57:00,
2013-04-27 06:02:00,54.1,52.9,30.32,East,80,0.0,0.0,96,0.00,,,0.00,WUHU216DAVISVP2,2013-04-27 10:02:00,
2013-04-27 06:07:00,54.2,53.0,30.31,East,81,0.0,0.0,96,0.00,,,0.00,WUHU216DAVISVP2,2013-04-27 10:07:00,
2013-04-27 06:12:00,54.2,53.0,30.31,East,81,0.0,0.0,96,0.00,,,0.00,WUHU216DAVISVP2,2013-04-27 10:12:00,
2013-04-27 06:17:00,54.2,53.0,30.31,East,80,0.0,0.0,96,0.00,,,0.00,WUHU216DAVISVP2,2013-04-27 10:17:00,
2013-04-27 06:22:00,54.2,53.0,30.31,East,79,0.0,0.0,96,0.00,,,0.00,WUHU216DAVISVP2,2013-04-27 10:22:00,
2013-04-27 06:27:00,54.2,53.0,30.31,East,79,0.0,0.0,96,0.00,,,0.00,WUHU216DAVISVP2,2013-04-27 10:27:00,
2013-04-27 06:32:00,54.2,53.0,30.31,East,81,0.0,0.0,96,0.00,,,0.00,WUHU216DAVISVP2,2013-04-27 10:32:00,
2013-04-27 06:37:00,54.1,52.9,30.31,East,80,0.0,0.0,96,0.00,,,0.00,WUHU216DAVISVP2,2013-04-27 10:37:00,
2013-04-27 06:42:00,54.2,53.0,30.31,East,80,0.0,0.0,96,0.00,,,0.00,WUHU216DAVISVP2,2013-04-27 10:42:00,
2013-04-27 06:47:00,54.2,53.1,30.31,East,80,0.0,0.0,96,0.00,,,0.00,WUHU216DAVISVP2,2013-04-27 10:47:00,
2013-04-27 06:52:00,54.2,53.1,30.31,East,79,0.0,0.0,96,0.00,,,0.00,WUHU216DAVISVP2,2013-04-27 10:52:00,
2013-04-27 06:57:00,54.3,53.2,30.31,East,79,0.0,0.0,96,0.00,,,0.00,WUHU216DAVISVP2,2013-04-27 10:57:00,
2013-04-27 07:02:00,54.3,53.2,30.31,East,79,0.0,0.0,96,0.00,,,0.00,WUHU216DAVISVP2,2013-04-27 11:02:00,
2013-04-27 07:07:00,54.5,53.4,30.32,East,79,0.0,0.0,96,0.00,,,0.00,WUHU216DAVISVP2,2013-04-27 11:07:00,
2013-04-27 07:13:00,54.6,53.4,30.32,East,79,0.0,0.0,96,0.00,,,0.00,WUHU216DAVISVP2,2013-04-27 11:13:00,
2013-04-27 07:18:00,54.7,53.5,30.33,East,79,0.0,0.0,96,0.00,,,0.00,WUHU216DAVISVP2,2013-04-27 11:18:00,
2013-04-27 07:23:00,54.9,53.7,30.34,East,79,0.0,0.0,96,0.00,,,0.00,WUHU216DAVISVP2,2013-04-27 11:23:00,
2013-04-27 07:28:00,55.0,53.8,30.34,NW,309,0.0,0.0,96,0.00,,,0.00,WUHU216DAVISVP2,2013-04-27 11:28:00,
2013-04-27 07:33:00,55.1,53.9,30.34,NW,311,0.0,0.0,96,0.00,,,0.00,WUHU216DAVISVP2,2013-04-27 11:33:00,
2013-04-27 07:38:00,55.2,54.0,30.34,NW,311,0.0,0.0,96,0.00,,,0.00,WUHU216DAVISVP2,2013-04-27 11:38:00,
2013-04-27 07:43:00,55.2,54.0,30.34,NW,311,0.0,0.0,96,0.00,,,0.00,WUHU216DAVISVP2,2013-04-27 11:43:00,
2013-04-27 07:48:00,55.3,54.1,30.34,NW,311,0.0,0.0,96,0.00,,,0.00,WUHU216DAVISVP2,2013-04-27 11:48:00,
2013-04-27 07:53:00,55.5,54.3,30.34,NW,317,0.0,0.0,96,0.00,,,0.00,WUHU216DAVISVP2,2013-04-27 11:53:00,
2013-04-27 07:58:00,55.7,54.5,30.35,NW,318,0.0,0.0,96,0.00,,,0.00,WUHU216DAVISVP2,2013-04-27 11:58:00,
2013-04-27 08:03:00,55.9,54.7,30.35,NW,317,0.0,0.0,96,0.00,,,0.00,WUHU216DAVISVP2,2013-04-27 12:03:00,
2013-04-27 08:08:00,56.0,54.8,30.35,NW,318,0.0,0.0,96,0.00,,,0.00,WUHU216DAVISVP2,2013-04-27 12:08:00,
2013-04-27 08:13:00,56.1,54.6,30.35,NNW,330,0.0,0.0,95,0.00,,,0.00,WUHU216DAVISVP2,2013-04-27 12:13:00,
2013-04-27 08:18:00,56.3,54.8,30.35,NNW,330,0.0,0.0,95,0.00,,,0.00,WUHU216DAVISVP2,2013-04-27 12:18:00,
2013-04-27 08:23:00,56.6,55.1,30.35,NNE,33,0.0,0.0,95,0.00,,,0.00,WUHU216DAVISVP2,2013-04-27 12:23:00,
2013-04-27 08:28:00,56.8,55.3,30.36,NNE,32,0.0,0.0,95,0.00,,,0.00,WUHU216DAVISVP2,2013-04-27 12:28:00,
2013-04-27 08:33:00,57.1,55.4,30.36,NE,44,0.0,0.0,94,0.00,,,0.00,WUHU216DAVISVP2,2013-04-27 12:33:00,
2013-04-27 08:38:00,57.4,55.6,30.36,NE,44,0.0,0.0,94,0.00,,,0.00,WUHU216DAVISVP2,2013-04-27 12:38:00,
2013-04-27 08:43:00,57.9,55.8,30.36,NE,44,0.0,0.0,93,0.00,,,0.00,WUHU216DAVISVP2,2013-04-27 12:43:00,
2013-04-27 08:48:00,58.2,55.8,30.36,NE,44,0.0,0.0,92,0.00,,,0.00,WUHU216DAVISVP2,2013-04-27 12:48:00,
2013-04-27 08:53:00,58.4,55.8,30.36,NE,44,0.0,0.0,91,0.00,,,0.00,WUHU216DAVISVP2,2013-04-27 12:53:00,
2013-04-27 08:58:00,58.6,55.6,30.36,NE,44,0.0,0.0,90,0.00,,,0.00,WUHU216DAVISVP2,2013-04-27 12:58:00,
2013-04-27 09:03:00,58.9,56.0,30.36,NE,44,0.0,0.0,90,0.00,,,0.00,WUHU216DAVISVP2,2013-04-27 13:03:00,
2013-04-27 09:08:00,59.2,56.3,30.35,NE,50,0.0,0.0,90,0.00,,,0.00,WUHU216DAVISVP2,2013-04-27 13:08:00,
2013-04-27 09:13:00,59.5,56.3,30.35,NE,50,0.0,0.0,89,0.00,,,0.00,WUHU216DAVISVP2,2013-04-27 13:13:00,
2013-04-27 09:18:00,60.0,56.7,30.35,NE,50,0.0,0.0,89,0.00,,,0.00,WUHU216DAVISVP2,2013-04-27 13:18:00,
2013-04-27 09:23:00,60.4,56.8,30.35,ENE,58,0.0,0.0,88,0.00,,,0.00,WUHU216DAVISVP2,2013-04-27 13:23:00,
2013-04-27 09:28:00,61.0,57.1,30.35,ENE,65,0.0,0.0,87,0.00,,,0.00,WUHU216DAVISVP2,2013-04-27 13:28:00,
2013-04-27 09:33:00,61.8,57.6,30.35,WNW,293,0.0,0.0,86,0.00,,,0.00,WUHU216DAVISVP2,2013-04-27 13:33:00,
2013-04-27 09:38:00,62.6,57.7,30.35,ENE,76,0.0,0.0,84,0.00,,,0.00,WUHU216DAVISVP2,2013-04-27 13:38:00,
2013-04-27 09:43:00,63.2,57.7,30.35,ENE,77,0.0,0.0,82,0.00,,,0.00,WUHU216DAVISVP2,2013-04-27 13:43:00,
2013-04-27 09:48:00,63.3,57.8,30.35,ENE,78,0.0,0.0,82,0.00,,,0.00,WUHU216DAVISVP2,2013-04-27 13:48:00,
2013-04-27 09:53:00,63.8,57.2,30.35,ENE,70,3.0,3.0,79,0.00,,,0.00,WUHU216DAVISVP2,2013-04-27 13:53:00,
2013-04-27 09:58:00,64.2,56.6,30.35,ENE,75,0.0,6.0,76,0.00,,,0.00,WUHU216DAVISVP2,2013-04-27 13:58:00,
2013-04-27 10:03:00,64.8,56.4,30.36,ENE,75,0.0,6.0,74,0.00,,,0.00,WUHU216DAVISVP2,2013-04-27 14:03:00,
2013-04-27 10:08:00,65.4,57.4,30.36,ENE,75,0.0,3.0,75,0.00,,,0.00,WUHU216DAVISVP2,2013-04-27 14:08:00,
2013-04-27 10:13:00,66.0,58.0,30.36,ENE,75,0.0,3.0,75,0.00,,,0.00,WUHU216DAVISVP2,2013-04-27 14:13:00,
2013-04-27 10:18:00,66.0,56.5,30.35,ENE,75,0.0,3.0,71,0.00,,,0.00,WUHU216DAVISVP2,2013-04-27 14:18:00,
2013-04-27 10:23:00,66.3,56.8,30.35,ENE,75,0.0,3.0,71,0.00,,,0.00,WUHU216DAVISVP2,2013-04-27 14:23:00,
2013-04-27 10:28:00,66.5,56.2,30.35,NNE,27,0.0,6.0,69,0.00,,,0.00,WUHU216DAVISVP2,2013-04-27 14:28:00,
2013-04-27 10:33:00,66.7,55.6,30.35,NW,311,6.0,6.0,67,0.00,,,0.00,WUHU216DAVISVP2,2013-04-27 14:33:00,
2013-04-27 10:38:00,67.1,56.0,30.35,NNE,13,0.0,6.0,67,0.00,,,0.00,WUHU216DAVISVP2,2013-04-27 14:38:00,
2013-04-27 10:43:00,67.5,55.9,30.35,ENE,62,0.0,6.0,66,0.00,,,0.00,WUHU216DAVISVP2,2013-04-27 14:43:00,
2013-04-27 10:48:00,68.3,56.7,30.35,ENE,70,0.0,4.0,66,0.00,,,0.00,WUHU216DAVISVP2,2013-04-27 14:48:00,
2013-04-27 10:53:00,69.1,56.6,30.35,ENE,73,0.0,3.0,64,0.00,,,0.00,WUHU216DAVISVP2,2013-04-27 14:53:00,
2013-04-27 10:58:00,69.6,55.3,30.34,NE,39,3.0,6.0,60,0.00,,,0.00,WUHU216DAVISVP2,2013-04-27 14:58:00,
2013-04-27 11:03:00,70.1,54.3,30.34,ENE,58,3.0,6.0,57,0.00,,,0.00,WUHU216DAVISVP2,2013-04-27 15:03:00,
2013-04-27 11:08:00,70.7,53.4,30.34,East,86,6.0,6.0,54,0.00,,,0.00,WUHU216DAVISVP2,2013-04-27 15:08:00,
2013-04-27 11:13:00,70.9,51.9,30.34,ENE,65,3.0,9.0,51,0.00,,,0.00,WUHU216DAVISVP2,2013-04-27 15:13:00,
2013-04-27 11:18:00,71.3,51.2,30.34,ENE,58,0.0,9.0,49,0.00,,,0.00,WUHU216DAVISVP2,2013-04-27 15:18:00,
2013-04-27 11:23:00,71.2,49.3,30.33,ENE,58,3.0,15.0,46,0.00,,,0.00,WUHU216DAVISVP2,2013-04-27 15:23:00,
2013-04-27 11:28:00,71.4,50.1,30.33,NE,56,6.0,15.0,47,0.00,,,0.00,WUHU216DAVISVP2,2013-04-27 15:28:00,
2013-04-27 11:33:00,72.0,49.5,30.33,ENE,70,3.0,15.0,45,0.00,,,0.00,WUHU216DAVISVP2,2013-04-27 15:33:00,
2013-04-27 11:38:00,72.7,49.5,30.34,NE,39,6.0,15.0,44,0.00,,,0.00,WUHU216DAVISVP2,2013-04-27 15:38:00,
2013-04-27 11:43:00,73.1,49.9,30.34,ENE,70,9.0,15.0,44,0.00,,,0.00,WUHU216DAVISVP2,2013-04-27 15:43:00,
2013-04-27 11:48:00,74.5,49.8,30.33,ESE,115,3.0,10.0,42,0.00,,,0.00,WUHU216DAVISVP2,2013-04-27 15:48:00,
2013-04-27 11:53:00,75.0,48.9,30.33,NE,53,3.0,10.0,40,0.00,,,0.00,WUHU216DAVISVP2,2013-04-27 15:53:00,
2013-04-27 11:58:00,75.1,51.0,30.33,ENE,58,9.0,12.0,43,0.00,,,0.00,WUHU216DAVISVP2,2013-04-27 15:58:00,
2013-04-27 12:03:00,73.6,49.7,30.33,ESE,115,3.0,15.0,43,0.00,,,0.00,WUHU216DAVISVP2,2013-04-27 16:03:00,
2013-04-27 12:08:00,73.9,50.6,30.33,SW,222,3.0,15.0,44,0.00,,,0.00,WUHU216DAVISVP2,2013-04-27 16:08:00,
2013-04-27 12:13:00,74.4,51.7,30.33,SE,141,0.0,8.0,45,0.00,,,0.00,WUHU216DAVISVP2,2013-04-27 16:13:00,
2013-04-27 12:18:00,74.7,51.3,30.32,SSW,207,3.0,6.0,44,0.00,,,0.00,WUHU216DAVISVP2,2013-04-27 16:18:00,
2013-04-27 12:23:00,74.9,52.1,30.32,ENE,74,3.0,9.0,45,0.00,,,0.00,WUHU216DAVISVP2,2013-04-27 16:23:00,
2013-04-27 12:28:00,75.4,52.6,30.32,East,96,6.0,9.0,45,0.00,,,0.00,WUHU216DAVISVP2,2013-04-27 16:28:00,
2013-04-27 12:33:00,76.1,51.9,30.32,NE,53,6.0,12.0,43,0.00,,,0.00,WUHU216DAVISVP2,2013-04-27 16:33:00,
2013-04-27 12:38:00,76.3,52.8,30.32,NE,56,3.0,12.0,44,0.00,,,0.00,WUHU216DAVISVP2,2013-04-27 16:38:00,
2013-04-27 12:43:00,76.5,49.0,30.31,ENE,65,6.0,12.0,38,0.00,,,0.00,WUHU216DAVISVP2,2013-04-27 16:43:00,
2013-04-27 12:48:00,76.2,48.7,30.32,SE,126,6.0,12.0,38,0.00,,,0.00,WUHU216DAVISVP2,2013-04-27 16:48:00,
2013-04-27 12:53:00,75.9,49.8,30.31,SSE,148,0.0,9.0,40,0.00,,,0.00,WUHU216DAVISVP2,2013-04-27 16:53:00,
2013-04-27 12:58:00,75.9,51.2,30.31,East,94,3.0,9.0,42,0.00,,,0.00,WUHU216DAVISVP2,2013-04-27 16:58:00,
2013-04-27 13:03:00,76.1,48.6,30.31,SE,128,0.0,9.0,38,0.00,,,0.00,WUHU216DAVISVP2,2013-04-27 17:03:00,
2013-04-27 13:08:00,76.2,48.7,30.31,ENE,69,6.0,9.0,38,0.00,,,0.00,WUHU216DAVISVP2,2013-04-27 17:08:00,
2013-04-27 13:13:00,75.9,50.5,30.30,ENE,76,6.0,9.0,41,0.00,,,0.00,WUHU216DAVISVP2,2013-04-27 17:13:00,
2013-04-27 13:18:00,75.9,45.5,30.30,ESE,122,6.0,9.0,34,0.00,,,0.00,WUHU216DAVISVP2,2013-04-27 17:18:00,
2013-04-27 13:23:00,75.7,46.1,30.30,East,82,3.0,12.0,35,0.00,,,0.00,WUHU216DAVISVP2,2013-04-27 17:23:00,
2013-04-27 13:28:00,75.7,48.2,30.30,East,98,3.0,12.0,38,0.00,,,0.00,WUHU216DAVISVP2,2013-04-27 17:28:00,
2013-04-27 13:33:00,75.1,46.9,30.30,ENE,58,6.0,12.0,37,0.00,,,0.00,WUHU216DAVISVP2,2013-04-27 17:33:00,
2013-04-27 13:38:00,75.7,47.4,30.30,ENE,72,6.0,12.0,37,0.00,,,0.00,WUHU216DAVISVP2,2013-04-27 17:38:00,
2013-04-27 13:43:00,76.7,47.6,30.30,East,97,6.0,9.0,36,0.00,,,0.00,WUHU216DAVISVP2,2013-04-27 17:43:00,
2013-04-27 13:48:00,77.0,45.5,30.30,East,101,6.0,21.0,33,0.00,,,0.00,WUHU216DAVISVP2,2013-04-27 17:48:00,
2013-04-27 13:53:00,76.8,47.7,30.30,ENE,58,6.0,21.0,36,0.00,,,0.00,WUHU216DAVISVP2,2013-04-27 17:53:00,
2013-04-27 13:58:00,75.8,47.7,30.30,NNE,25,3.0,12.0,37,0.00,,,0.00,WUHU216DAVISVP2,2013-04-27 17:58:00,
2013-04-27 14:03:00,76.0,47.0,30.30,East,79,6.0,12.0,36,0.00,,,0.00,WUHU216DAVISVP2,2013-04-27 18:03:00,
2013-04-27 14:08:00,75.9,45.4,30.30,ENE,61,9.0,12.0,34,0.00,,,0.00,WUHU216DAVISVP2,2013-04-27 18:08:00,
2013-04-27 14:13:00,76.2,47.1,30.30,ESE,104,6.0,9.0,36,0.00,,,0.00,WUHU216DAVISVP2,2013-04-27 18:13:00,
2013-04-27 14:18:00,76.4,46.6,30.30,West,271,3.0,12.0,35,0.00,,,0.00,WUHU216DAVISVP2,2013-04-27 18:18:00,
2013-04-27 14:23:00,76.3,48.0,30.30,NW,311,3.0,12.0,37,0.00,,,0.00,WUHU216DAVISVP2,2013-04-27 18:23:00,
2013-04-27 14:28:00,76.4,47.3,30.30,ENE,78,3.0,15.0,36,0.00,,,0.00,WUHU216DAVISVP2,2013-04-27 18:28:00,
2013-04-27 14:33:00,76.6,49.0,30.30,ENE,64,0.0,15.0,38,0.00,,,0.00,WUHU216DAVISVP2,2013-04-27 18:33:00,
2013-04-27 14:38:00,76.8,49.1,30.30,SW,235,3.0,15.0,38,0.00,,,0.00,WUHU216DAVISVP2,2013-04-27 18:38:00,
2013-04-27 14:44:00,76.3,47.2,30.30,NE,50,6.0,12.0,36,0.00,,,0.00,WUHU216DAVISVP2,2013-04-27 18:44:00,
2013-04-27 14:49:00,76.2,50.8,30.29,East,79,6.0,12.0,41,0.00,,,0.00,WUHU216DAVISVP2,2013-04-27 18:49:00,
2013-04-27 14:54:00,76.2,48.7,30.29,ENE,66,6.0,15.0,38,0.00,,,0.00,WUHU216DAVISVP2,2013-04-27 18:54:00,
2013-04-27 14:59:00,76.7,47.6,30.29,NE,35,3.0,15.0,36,0.00,,,0.00,WUHU216DAVISVP2,2013-04-27 18:59:00,
2013-04-27 15:04:00,76.2,47.1,30.29,West,271,3.0,18.0,36,0.00,,,0.00,WUHU216DAVISVP2,2013-04-27 19:04:00,
2013-04-27 15:09:00,76.2,47.9,30.29,East,79,3.0,18.0,37,0.00,,,0.00,WUHU216DAVISVP2,2013-04-27 19:09:00,
2013-04-27 15:14:00,76.2,45.6,30.29,ENE,70,3.0,15.0,34,0.00,,,0.00,WUHU216DAVISVP2,2013-04-27 19:14:00,
2013-04-27 15:19:00,76.0,45.4,30.29,ENE,78,9.0,15.0,34,0.00,,,0.00,WUHU216DAVISVP2,2013-04-27 19:19:00,
2013-04-27 15:24:00,76.1,44.7,30.29,East,79,12.0,15.0,33,0.00,,,0.00,WUHU216DAVISVP2,2013-04-27 19:24:00,
2013-04-27 15:29:00,75.6,45.1,30.29,ENE,71,6.0,15.0,34,0.00,,,0.00,WUHU216DAVISVP2,2013-04-27 19:29:00,
2013-04-27 15:34:00,75.4,45.7,30.29,ESE,110,0.0,15.0,35,0.00,,,0.00,WUHU216DAVISVP2,2013-04-27 19:34:00,
2013-04-27 15:39:00,75.4,45.8,30.29,NE,50,6.0,15.0,35,0.00,,,0.00,WUHU216DAVISVP2,2013-04-27 19:39:00,
2013-04-27 15:44:00,75.8,46.2,30.29,East,88,3.0,12.0,35,0.00,,,0.00,WUHU216DAVISVP2,2013-04-27 19:44:00,
2013-04-27 15:49:00,75.9,45.5,30.29,WNW,301,6.0,10.0,34,0.00,,,0.00,WUHU216DAVISVP2,2013-04-27 19:49:00,
2013-04-27 15:54:00,75.2,43.9,30.29,East,79,9.0,15.0,33,0.00,,,0.00,WUHU216DAVISVP2,2013-04-27 19:54:00,
2013-04-27 15:59:00,74.1,43.0,30.29,WSW,249,3.0,15.0,33,0.00,,,0.00,WUHU216DAVISVP2,2013-04-27 19:59:00,
2013-04-27 16:04:00,73.7,43.4,30.28,ESE,110,3.0,24.0,34,0.00,,,0.00,WUHU216DAVISVP2,2013-04-27 20:04:00,
2013-04-27 16:09:00,74.0,43.7,30.28,East,79,9.0,24.0,34,0.00,,,0.00,WUHU216DAVISVP2,2013-04-27 20:09:00,
2013-04-27 16:14:00,73.3,43.1,30.28,ENE,61,6.0,18.0,34,0.00,,,0.00,WUHU216DAVISVP2,2013-04-27 20:14:00,
2013-04-27 16:19:00,72.9,41.9,30.28,NE,55,3.0,18.0,33,0.00,,,0.00,WUHU216DAVISVP2,2013-04-27 20:19:00,
2013-04-27 16:24:00,73.3,45.3,30.28,East,98,0.0,12.0,37,0.00,,,0.00,WUHU216DAVISVP2,2013-04-27 20:24:00,
2013-04-27 16:29:00,73.3,40.7,30.28,ENE,67,0.0,12.0,31,0.00,,,0.00,WUHU216DAVISVP2,2013-04-27 20:29:00,
2013-04-27 16:34:00,72.8,41.0,30.28,East,95,3.0,12.0,32,0.00,,,0.00,WUHU216DAVISVP2,2013-04-27 20:34:00,
2013-04-27 16:39:00,72.5,40.1,30.28,ENE,64,9.0,15.0,31,0.00,,,0.00,WUHU216DAVISVP2,2013-04-27 20:39:00,
2013-04-27 16:44:00,72.4,40.0,30.28,NE,49,3.0,15.0,31,0.00,,,0.00,WUHU216DAVISVP2,2013-04-27 20:44:00,
2013-04-27 16:49:00,72.2,38.0,30.28,ENE,70,3.0,18.0,29,0.00,,,0.00,WUHU216DAVISVP2,2013-04-27 20:49:00,
2013-04-27 16:54:00,71.7,38.4,30.28,East,84,3.0,18.0,30,0.00,,,0.00,WUHU216DAVISVP2,2013-04-27 20:54:00,
2013-04-27 16:59:00,71.3,38.1,30.28,ESE,120,3.0,12.0,30,0.00,,,0.00,WUHU216DAVISVP2,2013-04-27 20:59:00,
2013-04-27 17:04:00,71.1,37.9,30.27,ENE,69,6.0,12.0,30,0.00,,,0.00,WUHU216DAVISVP2,2013-04-27 21:04:00,
2013-04-27 17:09:00,71.1,42.6,30.27,NE,53,0.0,9.0,36,0.00,,,0.00,WUHU216DAVISVP2,2013-04-27 21:09:00,
2013-04-27 17:14:00,70.8,45.2,30.27,WSW,239,3.0,9.0,40,0.00,,,0.00,WUHU216DAVISVP2,2013-04-27 21:14:00,
2013-04-27 17:19:00,70.3,44.0,30.28,East,89,0.0,9.0,39,0.00,,,0.00,WUHU216DAVISVP2,2013-04-27 21:19:00,
2013-04-27 17:24:00,69.9,43.7,30.27,ENE,72,3.0,9.0,39,0.00,,,0.00,WUHU216DAVISVP2,2013-04-27 21:24:00,
2013-04-27 17:29:00,69.4,40.4,30.27,ENE,70,0.0,15.0,35,0.00,,,0.00,WUHU216DAVISVP2,2013-04-27 21:29:00,
2013-04-27 17:34:00,69.4,40.4,30.27,ENE,70,3.0,15.0,35,0.00,,,0.00,WUHU216DAVISVP2,2013-04-27 21:34:00,
2013-04-27 17:39:00,69.2,37.9,30.26,ENE,69,6.0,18.0,32,0.00,,,0.00,WUHU216DAVISVP2,2013-04-27 21:39:00,
2013-04-27 17:44:00,69.0,37.7,30.27,NNW,348,3.0,18.0,32,0.00,,,0.00,WUHU216DAVISVP2,2013-04-27 21:44:00,
2013-04-27 17:49:00,68.9,39.2,30.27,East,87,0.0,12.0,34,0.00,,,0.00,WUHU216DAVISVP2,2013-04-27 21:49:00,
2013-04-27 17:54:00,68.9,39.2,30.27,East,96,3.0,12.0,34,0.00,,,0.00,WUHU216DAVISVP2,2013-04-27 21:54:00,
2013-04-27 17:59:00,68.4,38.0,30.28,East,85,6.0,15.0,33,0.00,,,0.00,WUHU216DAVISVP2,2013-04-27 21:59:00,
2013-04-27 18:04:00,68.1,38.5,30.28,ENE,76,6.0,15.0,34,0.00,,,0.00,WUHU216DAVISVP2,2013-04-27 22:04:00,
2013-04-27 18:09:00,68.1,40.0,30.28,East,93,0.0,12.0,36,0.00,,,0.00,WUHU216DAVISVP2,2013-04-27 22:09:00,
2013-04-27 18:14:00,68.1,41.5,30.28,ENE,70,6.0,8.0,38,0.00,,,0.00,WUHU216DAVISVP2,2013-04-27 22:14:00,
2013-04-27 18:19:00,67.9,41.9,30.28,ENE,72,0.0,6.0,39,0.00,,,0.00,WUHU216DAVISVP2,2013-04-27 22:19:00,
2013-04-27 18:24:00,67.3,42.8,30.28,ESE,109,0.0,12.0,41,0.00,,,0.00,WUHU216DAVISVP2,2013-04-27 22:24:00,
2013-04-27 18:29:00,66.9,43.7,30.28,ENE,76,6.0,12.0,43,0.00,,,0.00,WUHU216DAVISVP2,2013-04-27 22:29:00,
2013-04-27 18:34:00,66.6,45.2,30.28,ESE,117,3.0,9.0,46,0.00,,,0.00,WUHU216DAVISVP2,2013-04-27 22:34:00,
2013-04-27 18:39:00,66.4,45.5,30.29,WSW,240,0.0,9.0,47,0.00,,,0.00,WUHU216DAVISVP2,2013-04-27 22:39:00,
2013-04-27 18:44:00,66.3,46.0,30.29,East,86,0.0,9.0,48,0.00,,,0.00,WUHU216DAVISVP2,2013-04-27 22:44:00,
2013-04-27 18:49:00,66.2,46.5,30.29,East,96,3.0,12.0,49,0.00,,,0.00,WUHU216DAVISVP2,2013-04-27 22:49:00,
2013-04-27 18:54:00,66.1,46.9,30.30,SSE,148,0.0,12.0,50,0.00,,,0.00,WUHU216DAVISVP2,2013-04-27 22:54:00,
2013-04-27 18:59:00,66.0,47.9,30.29,NW,316,0.0,12.0,52,0.00,,,0.00,WUHU216DAVISVP2,2013-04-27 22:59:00,
2013-04-27 19:04:00,65.8,47.7,30.30,ENE,68,3.0,12.0,52,0.00,,,0.00,WUHU216DAVISVP2,2013-04-27 23:04:00,
2013-04-27 19:09:00,65.6,47.6,30.29,ENE,72,0.0,4.0,52,0.00,,,0.00,WUHU216DAVISVP2,2013-04-27 23:09:00,
2013-04-27 19:14:00,65.4,47.9,30.29,ENE,72,0.0,3.0,53,0.00,,,0.00,WUHU216DAVISVP2,2013-04-27 23:14:00,
2013-04-27 19:19:00,65.2,48.2,30.29,ENE,76,3.0,6.0,54,0.00,,,0.00,WUHU216DAVISVP2,2013-04-27 23:19:00,
2013-04-27 19:24:00,65.0,48.5,30.29,ENE,61,3.0,9.0,55,0.00,,,0.00,WUHU216DAVISVP2,2013-04-27 23:24:00,
2013-04-27 19:29:00,64.9,48.9,30.29,NE,50,0.0,9.0,56,0.00,,,0.00,WUHU216DAVISVP2,2013-04-27 23:29:00,
2013-04-27 19:34:00,64.7,49.2,30.30,NE,50,0.0,6.0,57,0.00,,,0.00,WUHU216DAVISVP2,2013-04-27 23:34:00,
2013-04-27 19:39:00,64.2,51.9,30.30,North,11,0.0,6.0,64,0.00,,,0.00,WUHU216DAVISVP2,2013-04-27 23:39:00,
2013-04-27 19:44:00,63.1,52.5,30.30,East,100,0.0,3.0,68,0.00,,,0.00,WUHU216DAVISVP2,2013-04-27 23:44:00,
2013-04-27 19:49:00,62.3,54.4,30.30,ESE,103,0.0,3.0,75,0.00,,,0.00,WUHU216DAVISVP2,2013-04-27 23:49:00,
2013-04-27 19:54:00,61.2,54.0,30.29,ESE,115,3.0,3.0,77,0.00,,,0.00,WUHU216DAVISVP2,2013-04-27 23:54:00,
2013-04-27 19:59:00,60.4,53.6,30.29,East,100,3.0,9.0,78,0.00,,,0.00,WUHU216DAVISVP2,2013-04-27 23:59:00,
2013-04-27 20:04:00,60.2,53.0,30.29,East,100,0.0,9.0,77,0.00,,,0.00,WUHU216DAVISVP2,2013-04-28 00:04:00,
2013-04-27 20:09:00,60.1,52.6,30.28,WSW,257,0.0,6.0,76,0.00,,,0.00,WUHU216DAVISVP2,2013-04-28 00:09:00,
2013-04-27 20:14:00,60.0,53.9,30.28,WNW,291,3.0,3.0,80,0.00,,,0.00,WUHU216DAVISVP2,2013-04-28 00:14:00,
2013-04-27 20:19:00,59.7,54.2,30.28,WNW,291,0.0,3.0,82,0.00,,,0.00,WUHU216DAVISVP2,2013-04-28 00:19:00,
2013-04-27 20:24:00,59.6,54.4,30.27,WNW,291,0.0,3.0,83,0.00,,,0.00,WUHU216DAVISVP2,2013-04-28 00:24:00,
2013-04-27 20:29:00,59.4,54.2,30.27,WNW,291,0.0,3.0,83,0.00,,,0.00,WUHU216DAVISVP2,2013-04-28 00:29:00,
2013-04-27 20:34:00,59.3,54.5,30.27,WNW,291,0.0,3.0,84,0.00,,,0.00,WUHU216DAVISVP2,2013-04-28 00:34:00,
2013-04-27 20:39:00,59.1,54.3,30.27,WNW,290,0.0,2.0,84,0.00,,,0.00,WUHU216DAVISVP2,2013-04-28 00:39:00,
2013-04-27 20:44:00,58.9,53.1,30.27,WNW,291,0.0,3.0,81,0.00,,,0.00,WUHU216DAVISVP2,2013-04-28 00:44:00,
2013-04-27 20:49:00,58.9,53.1,30.27,WNW,291,0.0,3.0,81,0.00,,,0.00,WUHU216DAVISVP2,2013-04-28 00:49:00,
2013-04-27 20:54:00,59.0,53.8,30.27,WNW,291,0.0,2.0,83,0.00,,,0.00,WUHU216DAVISVP2,2013-04-28 00:54:00,
2013-04-27 20:59:00,59.1,52.9,30.27,SSW,210,0.0,3.0,80,0.00,,,0.00,WUHU216DAVISVP2,2013-04-28 00:59:00,
2013-04-27 21:04:00,59.2,52.3,30.27,SSW,210,0.0,3.0,78,0.00,,,0.00,WUHU216DAVISVP2,2013-04-28 01:04:00,
2013-04-27 21:09:00,59.4,51.8,30.27,SSE,158,0.0,3.0,76,0.00,,,0.00,WUHU216DAVISVP2,2013-04-28 01:09:00,
2013-04-27 21:14:00,59.6,52.0,30.27,SSE,158,0.0,3.0,76,0.00,,,0.00,WUHU216DAVISVP2,2013-04-28 01:14:00,
2013-04-27 21:19:00,59.6,52.7,30.26,SW,218,0.0,3.0,78,0.00,,,0.00,WUHU216DAVISVP2,2013-04-28 01:19:00,
2013-04-27 21:24:00,59.6,53.1,30.26,WNW,285,0.0,6.0,79,0.00,,,0.00,WUHU216DAVISVP2,2013-04-28 01:24:00,
2013-04-27 21:29:00,59.6,52.0,30.27,NNE,16,3.0,6.0,76,0.00,,,0.00,WUHU216DAVISVP2,2013-04-28 01:29:00,
2013-04-27 21:34:00,59.8,52.2,30.27,NNE,23,0.0,4.0,76,0.00,,,0.00,WUHU216DAVISVP2,2013-04-28 01:34:00,
2013-04-27 21:39:00,60.0,52.5,30.28,NNE,23,0.0,4.0,76,0.00,,,0.00,WUHU216DAVISVP2,2013-04-28 01:39:00,
2013-04-27 21:44:00,59.9,52.4,30.28,NNE,23,0.0,2.0,76,0.00,,,0.00,WUHU216DAVISVP2,2013-04-28 01:44:00,
2013-04-27 21:49:00,60.0,51.8,30.27,NE,39,3.0,6.0,74,0.00,,,0.00,WUHU216DAVISVP2,2013-04-28 01:49:00,
2013-04-27 21:54:00,60.2,51.6,30.27,NE,47,3.0,6.0,73,0.00,,,0.00,WUHU216DAVISVP2,2013-04-28 01:54:00,
2013-04-27 21:59:00,60.2,51.6,30.27,NE,46,0.0,4.0,73,0.00,,,0.00,WUHU216DAVISVP2,2013-04-28 01:59:00,
2013-04-27 22:04:00,60.2,52.0,30.26,NE,46,0.0,4.0,74,0.00,,,0.00,WUHU216DAVISVP2,2013-04-28 02:04:00,
2013-04-27 22:09:00,60.1,51.9,30.27,NE,47,0.0,3.0,74,0.00,,,0.00,WUHU216DAVISVP2,2013-04-28 02:09:00,
2013-04-27 22:14:00,60.0,52.9,30.27,NE,46,0.0,3.0,77,0.00,,,0.00,WUHU216DAVISVP2,2013-04-28 02:14:00,
2013-04-27 22:19:00,59.7,52.9,30.27,NE,46,0.0,3.0,78,0.00,,,0.00,WUHU216DAVISVP2,2013-04-28 02:19:00,
2013-04-27 22:24:00,59.5,52.4,30.27,NE,46,0.0,3.0,77,0.00,,,0.00,WUHU216DAVISVP2,2013-04-28 02:24:00,
2013-04-27 22:29:00,59.4,52.9,30.28,NE,46,0.0,2.0,79,0.00,,,0.00,WUHU216DAVISVP2,2013-04-28 02:29:00,
2013-04-27 22:34:00,59.3,52.5,30.28,NE,43,3.0,3.0,78,0.00,,,0.00,WUHU216DAVISVP2,2013-04-28 02:34:00,
2013-04-27 22:40:00,59.3,51.8,30.27,NE,43,0.0,3.0,76,0.00,,,0.00,WUHU216DAVISVP2,2013-04-28 02:40:00,
2013-04-27 22:45:00,59.6,51.7,30.27,NE,50,0.0,3.0,75,0.00,,,0.00,WUHU216DAVISVP2,2013-04-28 02:45:00,
2013-04-27 22:50:00,59.7,51.8,30.27,NE,50,0.0,3.0,75,0.00,,,0.00,WUHU216DAVISVP2,2013-04-28 02:50:00,
2013-04-27 22:55:00,59.8,51.9,30.27,NE,50,0.0,3.0,75,0.00,,,0.00,WUHU216DAVISVP2,2013-04-28 02:55:00,
2013-04-27 23:00:00,59.8,51.5,30.27,NE,50,0.0,3.0,74,0.00,,,0.00,WUHU216DAVISVP2,2013-04-28 03:00:00,
2013-04-27 23:05:00,59.9,52.1,30.26,ENE,61,0.0,6.0,75,0.00,,,0.00,WUHU216DAVISVP2,2013-04-28 03:05:00,
2013-04-27 23:10:00,59.9,51.7,30.26,ENE,61,0.0,6.0,74,0.00,,,0.00,WUHU216DAVISVP2,2013-04-28 03:10:00,
2013-04-27 23:15:00,59.9,52.1,30.26,ENE,61,0.0,3.0,75,0.00,,,0.00,WUHU216DAVISVP2,2013-04-28 03:15:00,
2013-04-27 23:20:00,59.9,51.7,30.26,ENE,60,0.0,3.0,74,0.00,,,0.00,WUHU216DAVISVP2,2013-04-28 03:20:00,
2013-04-27 23:25:00,59.9,52.4,30.26,ENE,60,0.0,3.0,76,0.00,,,0.00,WUHU216DAVISVP2,2013-04-28 03:25:00,
2013-04-27 23:30:00,59.9,52.4,30.26,SE,131,0.0,3.0,76,0.00,,,0.00,WUHU216DAVISVP2,2013-04-28 03:30:00,
2013-04-27 23:35:00,59.8,52.3,30.26,NE,53,0.0,2.0,76,0.00,,,0.00,WUHU216DAVISVP2,2013-04-28 03:35:00,
2013-04-27 23:40:00,59.9,52.4,30.26,ENE,57,0.0,2.0,76,0.00,,,0.00,WUHU216DAVISVP2,2013-04-28 03:40:00,
2013-04-27 23:45:00,59.9,52.8,30.26,ENE,71,0.0,0.0,77,0.00,,,0.00,WUHU216DAVISVP2,2013-04-28 03:45:00,
2013-04-27 23:50:00,59.9,52.8,30.26,ENE,70,0.0,0.0,77,0.00,,,0.00,WUHU216DAVISVP2,2013-04-28 03:50:00,
2013-04-27 23:55:00,59.9,53.1,30.26,ENE,71,0.0,0.0,78,0.00,,,0.00,WUHU216DAVISVP2,2013-04-28 03:55:00,